Time,TemperatureF,DewpointF,PressureIn,WindDirection,WindDirectionDegrees,WindSpeedMPH,WindSpeedGustMPH,Humidity,HourlyPrecipIn,Conditions,Clouds,dailyrainin,SoftwareType,DateUTC
2013-03-14 00:00:00,24.5,18.0,30.27,West,278,4.0,4.0,76,0.00,,---,0.00,VWS V14.01,2013-03-14 04:00:00,
2013-03-14 00:05:00,24.5,18.0,30.27,West,278,5.0,5.0,76,0.00,,---,0.00,VWS V14.01,2013-03-14 04:05:00,
2013-03-14 00:10:00,24.5,18.0,30.27,West,278,4.0,5.0,76,0.00,,---,0.00,VWS V14.01,2013-03-14 04:10:00,
2013-03-14 00:15:00,24.5,18.3,30.27,West,278,4.0,6.0,77,0.00,,---,0.00,VWS V14.01,2013-03-14 04:15:00,
2013-03-14 00:20:00,24.6,18.4,30.27,West,277,4.0,5.0,77,0.00,,---,0.00,VWS V14.01,2013-03-14 04:20:00,
2013-03-14 00:25:00,24.7,18.8,30.27,West,276,5.0,6.0,78,0.00,,---,0.00,VWS V14.01,2013-03-14 04:25:00,
2013-03-14 00:30:00,24.7,18.8,30.27,West,274,4.0,5.0,78,0.00,,---,0.00,VWS V14.01,2013-03-14 04:30:00,
2013-03-14 00:35:00,24.8,18.9,30.26,WSW,257,5.0,6.0,78,0.00,,---,0.00,VWS V14.01,2013-03-14 04:35:00,
2013-03-14 00:40:00,24.8,18.9,30.27,WSW,257,6.0,6.0,78,0.00,,---,0.00,VWS V14.01,2013-03-14 04:40:00,
2013-03-14 00:45:00,24.8,18.9,30.27,WSW,257,5.0,5.0,78,0.00,,---,0.00,VWS V14.01,2013-03-14 04:45:00,
2013-03-14 00:50:00,24.8,18.9,30.27,WSW,257,4.0,5.0,78,0.00,,---,0.00,VWS V14.01,2013-03-14 04:50:00,
2013-03-14 00:55:00,24.8,18.9,30.27,WSW,257,5.0,5.0,78,0.00,,---,0.00,VWS V14.01,2013-03-14 04:55:00,
2013-03-14 01:00:00,24.8,18.9,30.27,WSW,257,4.0,5.0,78,0.00,,---,0.00,VWS V14.01,2013-03-14 05:00:00,
2013-03-14 01:05:00,24.8,18.9,30.27,WSW,257,4.0,4.0,78,0.00,,---,0.00,VWS V14.01,2013-03-14 05:05:00,
2013-03-14 01:10:00,24.8,18.9,30.27,WSW,257,5.0,5.0,78,0.00,,---,0.00,VWS V14.01,2013-03-14 05:10:00,
2013-03-14 01:15:00,24.9,19.0,30.27,WSW,257,5.0,5.0,78,0.00,,---,0.00,VWS V14.01,2013-03-14 05:15:00,
2013-03-14 01:20:00,24.9,19.0,30.27,WSW,257,4.0,6.0,78,0.00,,---,0.00,VWS V14.01,2013-03-14 05:20:00,
2013-03-14 01:25:00,24.9,19.0,30.27,WSW,257,5.0,5.0,78,0.00,,---,0.00,VWS V14.01,2013-03-14 05:25:00,
2013-03-14 01:30:00,24.9,18.7,30.26,WSW,257,4.0,5.0,77,0.00,,---,0.00,VWS V14.01,2013-03-14 05:30:00,
2013-03-14 01:35:00,24.9,18.7,30.26,WSW,257,5.0,6.0,77,0.00,,---,0.00,VWS V14.01,2013-03-14 05:35:00,
2013-03-14 01:40:00,24.8,18.6,30.26,WSW,257,4.0,5.0,77,0.00,,---,0.00,VWS V14.01,2013-03-14 05:40:00,
2013-03-14 01:45:00,24.8,18.6,30.27,WSW,257,6.0,6.0,77,0.00,,---,0.00,VWS V14.01,2013-03-14 05:45:00,
2013-03-14 01:50:00,24.7,18.8,30.27,WSW,257,4.0,5.0,78,0.00,,---,0.00,VWS V14.01,2013-03-14 05:50:00,
2013-03-14 01:55:00,24.7,18.8,30.27,WSW,257,5.0,6.0,78,0.00,,---,0.00,VWS V14.01,2013-03-14 05:55:00,
2013-03-14 02:00:00,24.7,18.8,30.27,WSW,246,7.0,7.0,78,0.00,,---,0.00,VWS V14.01,2013-03-14 06:00:00,
2013-03-14 02:05:00,24.8,18.9,30.27,WSW,246,4.0,5.0,78,0.00,,---,0.00,VWS V14.01,2013-03-14 06:05:00,
2013-03-14 02:10:00,24.9,19.0,30.27,WSW,246,4.0,5.0,78,0.00,,---,0.00,VWS V14.01,2013-03-14 06:10:00,
2013-03-14 02:15:00,25.0,19.1,30.27,WSW,246,5.0,6.0,78,0.00,,---,0.00,VWS V14.01,2013-03-14 06:15:00,
2013-03-14 02:20:00,25.1,19.2,30.27,WSW,246,4.0,4.0,78,0.00,,---,0.00,VWS V14.01,2013-03-14 06:20:00,
2013-03-14 02:25:00,25.1,19.2,30.27,WSW,246,5.0,6.0,78,0.00,,---,0.00,VWS V14.01,2013-03-14 06:25:00,
2013-03-14 02:30:00,25.2,19.3,30.28,WSW,246,5.0,6.0,78,0.00,,---,0.00,VWS V14.01,2013-03-14 06:30:00,
2013-03-14 02:35:00,25.2,19.3,30.28,WSW,246,6.0,6.0,78,0.00,,---,0.00,VWS V14.01,2013-03-14 06:35:00,
2013-03-14 02:40:00,25.2,19.0,30.28,WSW,246,5.0,6.0,77,0.00,,---,0.00,VWS V14.01,2013-03-14 06:40:00,
2013-03-14 02:45:00,25.2,19.3,30.27,WSW,246,6.0,6.0,78,0.00,,---,0.00,VWS V14.01,2013-03-14 06:45:00,
2013-03-14 02:50:00,25.2,19.3,30.28,WSW,246,4.0,6.0,78,0.00,,---,0.00,VWS V14.01,2013-03-14 06:50:00,
2013-03-14 02:55:00,25.2,19.0,30.28,WSW,246,5.0,6.0,77,0.00,,---,0.00,VWS V14.01,2013-03-14 06:55:00,
2013-03-14 03:00:00,25.1,19.2,30.28,WSW,246,5.0,5.0,78,0.00,,---,0.00,VWS V14.01,2013-03-14 07:00:00,
2013-03-14 03:05:00,25.0,19.1,30.27,WSW,246,4.0,4.0,78,0.00,,---,0.00,VWS V14.01,2013-03-14 07:05:00,
2013-03-14 03:10:00,24.8,18.6,30.27,WSW,246,4.0,4.0,77,0.00,,---,0.00,VWS V14.01,2013-03-14 07:10:00,
2013-03-14 03:15:00,24.7,18.8,30.27,WSW,246,4.0,5.0,78,0.00,,---,0.00,VWS V14.01,2013-03-14 07:15:00,
2013-03-14 03:20:00,24.5,18.6,30.27,WSW,246,2.0,3.0,78,0.00,,---,0.00,VWS V14.01,2013-03-14 07:20:00,
2013-03-14 03:25:00,24.3,18.4,30.27,WSW,246,4.0,5.0,78,0.00,,---,0.00,VWS V14.01,2013-03-14 07:25:00,
2013-03-14 03:30:00,24.2,18.3,30.27,WSW,246,4.0,5.0,78,0.00,,---,0.00,VWS V14.01,2013-03-14 07:30:00,
2013-03-14 03:35:00,24.1,18.5,30.27,WSW,246,4.0,5.0,79,0.00,,---,0.00,VWS V14.01,2013-03-14 07:35:00,
2013-03-14 03:40:00,23.9,18.4,30.27,WSW,246,4.0,5.0,79,0.00,,---,0.00,VWS V14.01,2013-03-14 07:40:00,
2013-03-14 03:45:00,23.8,18.2,30.27,WSW,246,4.0,4.0,79,0.00,,---,0.00,VWS V14.01,2013-03-14 07:45:00,
2013-03-14 03:50:00,23.7,18.1,30.27,WSW,246,5.0,5.0,79,0.00,,---,0.00,VWS V14.01,2013-03-14 07:50:00,
2013-03-14 03:55:00,23.8,18.2,30.27,WSW,246,5.0,6.0,79,0.00,,---,0.00,VWS V14.01,2013-03-14 07:55:00,
2013-03-14 04:00:00,23.8,18.2,30.27,WSW,246,5.0,6.0,79,0.00,,---,0.00,VWS V14.01,2013-03-14 08:00:00,
2013-03-14 04:05:00,23.9,18.4,30.27,WSW,246,6.0,6.0,79,0.00,,---,0.00,VWS V14.01,2013-03-14 08:05:00,
2013-03-14 04:10:00,24.0,18.5,30.27,WSW,246,5.0,5.0,79,0.00,,---,0.00,VWS V14.01,2013-03-14 08:10:00,
2013-03-14 04:15:00,24.1,18.8,30.26,WSW,246,3.0,5.0,80,0.00,,---,0.00,VWS V14.01,2013-03-14 08:15:00,
2013-03-14 04:20:00,24.2,18.6,30.27,WSW,246,5.0,6.0,79,0.00,,---,0.00,VWS V14.01,2013-03-14 08:20:00,
2013-03-14 04:25:00,24.2,18.6,30.27,WSW,246,5.0,5.0,79,0.00,,---,0.00,VWS V14.01,2013-03-14 08:25:00,
2013-03-14 04:30:00,24.2,18.6,30.27,WSW,246,4.0,5.0,79,0.00,,---,0.00,VWS V14.01,2013-03-14 08:30:00,
2013-03-14 04:35:00,24.2,18.6,30.26,WSW,246,6.0,7.0,79,0.00,,---,0.00,VWS V14.01,2013-03-14 08:35:00,
2013-03-14 04:40:00,24.2,18.6,30.26,WSW,246,4.0,5.0,79,0.00,,---,0.00,VWS V14.01,2013-03-14 08:40:00,
2013-03-14 04:45:00,24.3,19.0,30.26,WSW,246,5.0,5.0,80,0.00,,---,0.00,VWS V14.01,2013-03-14 08:45:00,
2013-03-14 04:50:00,24.2,18.9,30.26,WSW,246,4.0,6.0,80,0.00,,---,0.00,VWS V14.01,2013-03-14 08:50:00,
2013-03-14 04:55:00,24.2,18.9,30.25,WSW,246,4.0,5.0,80,0.00,,---,0.00,VWS V14.01,2013-03-14 08:55:00,
2013-03-14 05:00:00,24.2,18.9,30.26,WSW,246,4.0,4.0,80,0.00,,---,0.00,VWS V14.01,2013-03-14 09:00:00,
2013-03-14 05:05:00,24.2,18.9,30.26,WSW,246,4.0,5.0,80,0.00,,---,0.00,VWS V14.01,2013-03-14 09:05:00,
2013-03-14 05:10:00,24.1,18.8,30.26,WSW,246,3.0,5.0,80,0.00,,---,0.00,VWS V14.01,2013-03-14 09:10:00,
2013-03-14 05:15:00,24.1,18.8,30.26,WSW,246,3.0,4.0,80,0.00,,---,0.00,VWS V14.01,2013-03-14 09:15:00,
2013-03-14 05:20:00,24.0,18.7,30.26,WSW,246,3.0,4.0,80,0.00,,---,0.00,VWS V14.01,2013-03-14 09:20:00,
2013-03-14 05:25:00,23.8,18.8,30.26,WSW,246,3.0,4.0,81,0.00,,---,0.00,VWS V14.01,2013-03-14 09:25:00,
2013-03-14 05:30:00,23.8,18.8,30.26,WSW,246,3.0,3.0,81,0.00,,---,0.00,VWS V14.01,2013-03-14 09:30:00,
2013-03-14 05:35:00,23.8,19.1,30.26,WSW,246,3.0,3.0,82,0.00,,---,0.00,VWS V14.01,2013-03-14 09:35:00,
2013-03-14 05:40:00,23.6,18.9,30.26,WSW,246,2.0,3.0,82,0.00,,---,0.00,VWS V14.01,2013-03-14 09:40:00,
2013-03-14 05:45:00,23.4,18.7,30.26,WSW,246,1.0,2.0,82,0.00,,---,0.00,VWS V14.01,2013-03-14 09:45:00,
2013-03-14 05:50:00,23.3,18.9,30.26,WSW,246,3.0,4.0,83,0.00,,---,0.00,VWS V14.01,2013-03-14 09:50:00,
2013-03-14 05:55:00,23.3,18.9,30.26,WSW,246,2.0,3.0,83,0.00,,---,0.00,VWS V14.01,2013-03-14 09:55:00,
2013-03-14 06:00:00,23.2,18.8,30.26,WSW,246,2.0,2.0,83,0.00,,---,0.00,VWS V14.01,2013-03-14 10:00:00,
2013-03-14 06:05:00,23.1,18.7,30.26,WSW,246,1.0,2.0,83,0.00,,---,0.00,VWS V14.01,2013-03-14 10:05:00,
2013-03-14 06:10:00,23.1,18.7,30.26,WSW,246,0.0,0.0,83,0.00,,---,0.00,VWS V14.01,2013-03-14 10:10:00,
2013-03-14 06:15:00,23.0,18.6,30.26,WSW,246,0.0,0.0,83,0.00,,---,0.00,VWS V14.01,2013-03-14 10:15:00,
2013-03-14 06:20:00,23.0,18.9,30.26,WSW,246,0.0,0.0,84,0.00,,---,0.00,VWS V14.01,2013-03-14 10:20:00,
2013-03-14 06:25:00,22.9,18.8,30.26,WSW,246,0.0,0.0,84,0.00,,---,0.00,VWS V14.01,2013-03-14 10:25:00,
2013-03-14 06:30:00,22.9,18.8,30.27,WSW,246,0.0,0.0,84,0.00,,---,0.00,VWS V14.01,2013-03-14 10:30:00,
2013-03-14 06:35:00,22.9,19.1,30.27,WSW,246,0.0,0.0,85,0.00,,---,0.00,VWS V14.01,2013-03-14 10:35:00,
2013-03-14 06:40:00,22.8,19.2,30.27,WSW,246,0.0,0.0,86,0.00,,---,0.00,VWS V14.01,2013-03-14 10:40:00,
2013-03-14 06:45:00,22.8,19.2,30.27,WSW,246,0.0,0.0,86,0.00,,---,0.00,VWS V14.01,2013-03-14 10:45:00,
2013-03-14 06:50:00,22.7,19.1,30.27,WSW,246,1.0,2.0,86,0.00,,---,0.00,VWS V14.01,2013-03-14 10:50:00,
2013-03-14 06:55:00,22.5,19.0,30.27,WSW,246,0.0,0.0,86,0.00,,---,0.00,VWS V14.01,2013-03-14 10:55:00,
2013-03-14 07:00:00,22.4,18.9,30.27,WSW,246,0.0,0.0,86,0.00,,---,0.00,VWS V14.01,2013-03-14 11:00:00,
2013-03-14 07:05:00,22.1,18.6,30.27,WSW,246,0.0,0.0,86,0.00,,---,0.00,VWS V14.01,2013-03-14 11:05:00,
2013-03-14 07:10:00,21.8,18.5,30.27,WSW,246,0.0,0.0,87,0.00,,---,0.00,VWS V14.01,2013-03-14 11:10:00,
2013-03-14 07:16:00,21.6,18.6,30.27,WSW,246,0.0,0.0,88,0.00,,---,0.00,VWS V14.01,2013-03-14 11:16:00,
2013-03-14 07:21:00,21.5,18.5,30.27,WSW,246,0.0,0.0,88,0.00,,---,0.00,VWS V14.01,2013-03-14 11:21:00,
2013-03-14 07:26:00,21.4,18.4,30.27,WSW,246,0.0,0.0,88,0.00,,---,0.00,VWS V14.01,2013-03-14 11:26:00,
2013-03-14 07:31:00,21.2,18.2,30.28,WSW,246,0.0,0.0,88,0.00,,---,0.00,VWS V14.01,2013-03-14 11:31:00,
2013-03-14 07:36:00,21.1,18.1,30.28,WSW,246,0.0,0.0,88,0.00,,---,0.00,VWS V14.01,2013-03-14 11:36:00,
2013-03-14 07:40:00,20.8,18.1,30.28,WSW,246,0.0,0.0,89,0.00,,---,0.00,VWS V14.01,2013-03-14 11:40:00,
2013-03-14 07:46:00,20.7,18.0,30.28,WSW,246,0.0,0.0,89,0.00,,---,0.00,VWS V14.01,2013-03-14 11:46:00,
2013-03-14 07:50:00,20.6,18.1,30.28,WSW,246,0.0,0.0,90,0.00,,---,0.00,VWS V14.01,2013-03-14 11:50:00,
2013-03-14 07:55:00,20.6,18.1,30.28,WSW,246,0.0,0.0,90,0.00,,---,0.00,VWS V14.01,2013-03-14 11:55:00,
2013-03-14 08:00:00,20.5,18.0,30.28,WSW,246,0.0,0.0,90,0.00,,---,0.00,VWS V14.01,2013-03-14 12:00:00,
2013-03-14 08:05:00,20.4,17.9,30.28,WSW,246,0.0,0.0,90,0.00,,---,0.00,VWS V14.01,2013-03-14 12:05:00,
2013-03-14 08:10:00,20.4,17.9,30.28,WSW,246,0.0,0.0,90,0.00,,---,0.00,VWS V14.01,2013-03-14 12:10:00,
2013-03-14 08:15:00,20.3,18.1,30.29,WSW,246,0.0,0.0,91,0.00,,---,0.00,VWS V14.01,2013-03-14 12:15:00,
2013-03-14 08:20:00,20.3,18.1,30.28,WSW,246,0.0,0.0,91,0.00,,---,0.00,VWS V14.01,2013-03-14 12:20:00,
2013-03-14 08:25:00,20.4,18.2,30.28,WSW,246,0.0,0.0,91,0.00,,---,0.00,VWS V14.01,2013-03-14 12:25:00,
2013-03-14 08:30:00,20.6,18.6,30.29,WSW,246,0.0,0.0,92,0.00,,---,0.00,VWS V14.01,2013-03-14 12:30:00,
2013-03-14 08:36:00,20.8,18.9,30.29,WSW,246,0.0,0.0,92,0.00,,---,0.00,VWS V14.01,2013-03-14 12:36:00,
2013-03-14 08:40:00,20.9,19.0,30.29,WSW,246,0.0,0.0,92,0.00,,---,0.00,VWS V14.01,2013-03-14 12:40:00,
2013-03-14 08:45:00,21.1,19.1,30.29,WSW,246,0.0,0.0,92,0.00,,---,0.00,VWS V14.01,2013-03-14 12:45:00,
2013-03-14 08:50:00,21.4,19.4,30.29,WSW,246,0.0,0.0,92,0.00,,---,0.00,VWS V14.01,2013-03-14 12:50:00,
2013-03-14 08:55:00,21.9,20.2,30.30,WSW,246,0.0,0.0,93,0.00,,---,0.00,VWS V14.01,2013-03-14 12:55:00,
2013-03-14 09:00:00,22.5,20.8,30.30,WSW,246,0.0,0.0,93,0.00,,---,0.00,VWS V14.01,2013-03-14 13:00:00,
2013-03-14 09:05:00,22.9,21.2,30.30,WSW,246,0.0,0.0,93,0.00,,---,0.00,VWS V14.01,2013-03-14 13:05:00,
2013-03-14 09:11:00,23.3,21.6,30.30,WSW,248,0.0,0.0,93,0.00,,---,0.00,VWS V14.01,2013-03-14 13:11:00,
2013-03-14 09:16:00,23.8,22.1,30.30,SW,220,0.0,0.0,93,0.00,,---,0.00,VWS V14.01,2013-03-14 13:16:00,
2013-03-14 09:21:00,24.3,22.3,30.31,SW,220,0.0,0.0,92,0.00,,---,0.00,VWS V14.01,2013-03-14 13:21:00,
2013-03-14 09:26:00,24.8,22.8,30.30,SW,220,0.0,0.0,92,0.00,,---,0.00,VWS V14.01,2013-03-14 13:26:00,
2013-03-14 09:31:00,25.2,23.2,30.30,SW,221,0.0,0.0,92,0.00,,---,0.00,VWS V14.01,2013-03-14 13:31:00,
2013-03-14 09:36:00,25.6,23.3,30.30,SW,221,0.0,0.0,91,0.00,,---,0.00,VWS V14.01,2013-03-14 13:36:00,
2013-03-14 09:40:00,26.1,23.6,30.30,SW,221,0.0,0.0,90,0.00,,---,0.00,VWS V14.01,2013-03-14 13:40:00,
2013-03-14 09:45:00,26.7,23.9,30.30,SW,221,1.0,3.0,89,0.00,,---,0.00,VWS V14.01,2013-03-14 13:45:00,
2013-03-14 09:50:00,27.5,23.6,30.31,SW,221,3.0,3.0,85,0.00,,---,0.00,VWS V14.01,2013-03-14 13:50:00,
2013-03-14 09:55:00,28.5,23.4,30.31,SW,221,2.0,3.0,81,0.00,,---,0.00,VWS V14.01,2013-03-14 13:55:00,
2013-03-14 10:00:00,29.2,23.2,30.30,SW,221,0.0,3.0,78,0.00,,---,0.00,VWS V14.01,2013-03-14 14:00:00,
2013-03-14 10:05:00,29.9,23.3,30.31,SW,221,0.0,2.0,76,0.00,,---,0.00,VWS V14.01,2013-03-14 14:05:00,
2013-03-14 10:10:00,30.7,23.4,30.30,SW,221,2.0,4.0,74,0.00,,---,0.00,VWS V14.01,2013-03-14 14:10:00,
2013-03-14 10:15:00,31.3,23.7,30.31,SW,221,3.0,3.0,73,0.00,,---,0.00,VWS V14.01,2013-03-14 14:15:00,
2013-03-14 10:20:00,31.9,23.6,30.31,SW,221,3.0,4.0,71,0.00,,---,0.00,VWS V14.01,2013-03-14 14:20:00,
2013-03-14 10:25:00,32.3,23.3,30.30,SW,221,3.0,4.0,69,0.00,,---,0.00,VWS V14.01,2013-03-14 14:25:00,
2013-03-14 10:30:00,32.8,23.8,30.30,SW,221,2.0,4.0,69,0.00,,---,0.00,VWS V14.01,2013-03-14 14:30:00,
2013-03-14 10:35:00,33.3,23.9,30.30,SW,221,2.0,4.0,68,0.00,,---,0.00,VWS V14.01,2013-03-14 14:35:00,
2013-03-14 10:40:00,33.7,23.2,30.30,SW,221,2.0,3.0,65,0.00,,---,0.00,VWS V14.01,2013-03-14 14:40:00,
2013-03-14 10:45:00,34.1,23.2,30.30,SW,221,0.0,4.0,64,0.00,,---,0.00,VWS V14.01,2013-03-14 14:45:00,
2013-03-14 10:50:00,34.5,24.0,30.30,SW,221,2.0,2.0,65,0.00,,---,0.00,VWS V14.01,2013-03-14 14:50:00,
2013-03-14 10:55:00,34.8,24.6,30.30,SW,221,0.0,2.0,66,0.00,,---,0.00,VWS V14.01,2013-03-14 14:55:00,
2013-03-14 11:00:00,35.2,24.6,30.30,SW,221,0.0,3.0,65,0.00,,---,0.00,VWS V14.01,2013-03-14 15:00:00,
2013-03-14 11:05:00,35.7,24.7,30.30,SW,221,0.0,2.0,64,0.00,,---,0.00,VWS V14.01,2013-03-14 15:05:00,
2013-03-14 11:11:00,36.3,24.9,30.30,SW,221,1.0,2.0,63,0.00,,---,0.00,VWS V14.01,2013-03-14 15:11:00,
2013-03-14 11:16:00,36.5,25.1,30.30,SW,221,0.0,2.0,63,0.00,,---,0.00,VWS V14.01,2013-03-14 15:16:00,
2013-03-14 11:21:00,36.9,25.5,30.30,SW,221,2.0,3.0,63,0.00,,---,0.00,VWS V14.01,2013-03-14 15:21:00,
2013-03-14 11:26:00,37.3,25.9,30.30,SW,221,1.0,1.0,63,0.00,,---,0.00,VWS V14.01,2013-03-14 15:26:00,
2013-03-14 11:31:00,37.8,25.6,30.30,SW,221,1.0,3.0,61,0.00,,---,0.00,VWS V14.01,2013-03-14 15:31:00,
2013-03-14 11:36:00,38.0,25.8,30.29,SW,221,0.0,2.0,61,0.01,,---,0.01,VWS V14.01,2013-03-14 15:36:00,
2013-03-14 11:41:00,38.0,25.8,30.29,SW,221,2.0,2.0,61,0.01,,---,0.01,VWS V14.01,2013-03-14 15:41:00,
2013-03-14 11:46:00,37.8,26.0,30.29,SW,221,1.0,4.0,62,0.01,,---,0.01,VWS V14.01,2013-03-14 15:46:00,
2013-03-14 11:51:00,37.7,25.5,30.29,SW,221,1.0,2.0,61,0.01,,---,0.01,VWS V14.01,2013-03-14 15:51:00,
2013-03-14 11:56:00,37.4,25.2,30.29,SW,221,3.0,5.0,61,0.01,,---,0.01,VWS V14.01,2013-03-14 15:56:00,
2013-03-14 12:01:00,37.4,25.6,30.29,SW,221,1.0,3.0,62,0.01,,---,0.01,VWS V14.01,2013-03-14 16:01:00,
2013-03-14 12:06:00,37.3,25.9,30.29,WNW,297,3.0,6.0,63,0.01,,---,0.01,VWS V14.01,2013-03-14 16:06:00,
2013-03-14 12:11:00,36.7,24.5,30.29,West,272,3.0,6.0,61,0.01,,---,0.01,VWS V14.01,2013-03-14 16:11:00,
2013-03-14 12:16:00,36.1,23.2,30.28,WNW,292,4.0,6.0,59,0.01,,---,0.01,VWS V14.01,2013-03-14 16:16:00,
2013-03-14 12:21:00,35.7,24.0,30.28,WNW,295,4.0,6.0,62,0.01,,---,0.01,VWS V14.01,2013-03-14 16:21:00,
2013-03-14 12:26:00,35.3,24.4,30.28,WNW,289,4.0,4.0,64,0.01,,---,0.01,VWS V14.01,2013-03-14 16:26:00,
2013-03-14 12:31:00,35.5,24.2,30.28,WSW,244,3.0,5.0,63,0.01,,---,0.01,VWS V14.01,2013-03-14 16:31:00,
2013-03-14 12:36:00,35.6,23.9,30.28,WSW,244,0.0,2.0,62,0.00,,---,0.01,VWS V14.01,2013-03-14 16:36:00,
2013-03-14 12:41:00,36.2,26.0,30.27,SW,229,7.0,7.0,66,0.00,,---,0.01,VWS V14.01,2013-03-14 16:41:00,
2013-03-14 12:46:00,36.8,25.8,30.27,SW,229,2.0,4.0,64,0.00,,---,0.01,VWS V14.01,2013-03-14 16:46:00,
2013-03-14 12:51:00,37.2,26.2,30.27,WSW,244,3.0,7.0,64,0.00,,---,0.01,VWS V14.01,2013-03-14 16:51:00,
2013-03-14 12:55:00,37.3,25.9,30.27,WSW,245,1.0,7.0,63,0.00,,---,0.01,VWS V14.01,2013-03-14 16:55:00,
2013-03-14 13:00:00,37.6,26.5,30.27,West,267,3.0,6.0,64,0.00,,---,0.01,VWS V14.01,2013-03-14 17:00:00,
2013-03-14 13:06:00,37.8,25.2,30.27,SW,228,4.0,6.0,60,0.00,,---,0.01,VWS V14.01,2013-03-14 17:06:00,
2013-03-14 13:11:00,38.2,25.1,30.26,SW,227,0.0,2.0,59,0.00,,---,0.01,VWS V14.01,2013-03-14 17:11:00,
2013-03-14 13:16:00,38.8,26.9,30.27,SSW,213,2.0,9.0,62,0.00,,---,0.01,VWS V14.01,2013-03-14 17:16:00,
2013-03-14 13:21:00,38.8,25.7,30.26,WSW,254,4.0,6.0,59,0.00,,---,0.01,VWS V14.01,2013-03-14 17:21:00,
2013-03-14 13:26:00,38.6,27.1,30.26,SW,227,5.0,11.0,63,0.00,,---,0.01,VWS V14.01,2013-03-14 17:26:00,
2013-03-14 13:31:00,38.1,25.1,30.25,West,271,2.0,5.0,59,0.00,,---,0.01,VWS V14.01,2013-03-14 17:31:00,
2013-03-14 13:36:00,37.5,24.9,30.25,WSW,254,7.0,7.0,60,0.00,,---,0.01,VWS V14.01,2013-03-14 17:36:00,
2013-03-14 13:41:00,37.4,25.2,30.25,WSW,254,4.0,5.0,61,0.00,,---,0.01,VWS V14.01,2013-03-14 17:41:00,
2013-03-14 13:46:00,37.6,25.8,30.25,West,280,4.0,5.0,62,0.00,,---,0.01,VWS V14.01,2013-03-14 17:46:00,
2013-03-14 13:51:00,37.9,25.7,30.24,SSW,200,3.0,4.0,61,0.00,,---,0.01,VWS V14.01,2013-03-14 17:51:00,
2013-03-14 13:56:00,38.9,27.0,30.24,WSW,251,5.0,6.0,62,0.00,,---,0.01,VWS V14.01,2013-03-14 17:56:00,
2013-03-14 14:01:00,39.6,28.4,30.24,WSW,252,3.0,7.0,64,0.00,,---,0.01,VWS V14.01,2013-03-14 18:01:00,
2013-03-14 14:06:00,39.5,26.0,30.24,SW,231,3.0,7.0,58,0.00,,---,0.01,VWS V14.01,2013-03-14 18:06:00,
2013-03-14 14:11:00,40.2,26.6,30.23,SSW,205,2.0,2.0,58,0.00,,---,0.01,VWS V14.01,2013-03-14 18:11:00,
2013-03-14 14:16:00,40.8,27.2,30.23,SW,220,9.0,14.0,58,0.00,,---,0.01,VWS V14.01,2013-03-14 18:16:00,
2013-03-14 14:20:00,40.7,24.9,30.22,SW,215,8.0,10.0,53,0.00,,---,0.01,VWS V14.01,2013-03-14 18:20:00,
2013-03-14 14:26:00,40.5,26.9,30.22,WSW,239,8.0,10.0,58,0.00,,---,0.01,VWS V14.01,2013-03-14 18:26:00,
2013-03-14 14:31:00,40.2,25.3,30.22,SW,221,9.0,9.0,55,0.00,,---,0.01,VWS V14.01,2013-03-14 18:31:00,
2013-03-14 14:36:00,40.1,26.5,30.22,West,273,8.0,11.0,58,0.00,,---,0.01,VWS V14.01,2013-03-14 18:36:00,
2013-03-14 14:41:00,39.7,25.7,30.22,SW,214,7.0,15.0,57,0.00,,---,0.01,VWS V14.01,2013-03-14 18:41:00,
2013-03-14 14:46:00,40.0,25.6,30.22,WSW,251,8.0,12.0,56,0.00,,---,0.01,VWS V14.01,2013-03-14 18:46:00,
2013-03-14 14:51:00,40.1,26.5,30.22,SW,236,11.0,13.0,58,0.00,,---,0.01,VWS V14.01,2013-03-14 18:51:00,
2013-03-14 14:56:00,39.8,25.0,30.22,WSW,250,12.0,15.0,55,0.00,,---,0.01,VWS V14.01,2013-03-14 18:56:00,
2013-03-14 15:01:00,39.6,24.8,30.22,SW,225,7.0,9.0,55,0.00,,---,0.01,VWS V14.01,2013-03-14 19:01:00,
2013-03-14 15:06:00,39.7,24.9,30.22,WSW,242,9.0,15.0,55,0.00,,---,0.01,VWS V14.01,2013-03-14 19:06:00,
2013-03-14 15:11:00,39.5,24.2,30.22,WNW,294,11.0,14.0,54,0.00,,---,0.01,VWS V14.01,2013-03-14 19:11:00,
2013-03-14 15:17:00,39.1,24.7,30.22,WSW,248,6.0,14.0,56,0.00,,---,0.01,VWS V14.01,2013-03-14 19:17:00,
2013-03-14 15:21:00,39.1,23.9,30.22,WSW,256,8.0,14.0,54,0.00,,---,0.01,VWS V14.01,2013-03-14 19:21:00,
2013-03-14 15:26:00,39.1,24.7,30.22,West,268,11.0,16.0,56,0.00,,---,0.01,VWS V14.01,2013-03-14 19:26:00,
2013-03-14 15:32:00,38.9,25.0,30.22,West,275,7.0,9.0,57,0.00,,---,0.01,VWS V14.01,2013-03-14 19:32:00,
2013-03-14 15:37:00,38.9,25.0,30.22,West,263,10.0,14.0,57,0.00,,---,0.01,VWS V14.01,2013-03-14 19:37:00,
2013-03-14 15:42:00,39.0,24.6,30.22,SW,232,9.0,16.0,56,0.00,,---,0.01,VWS V14.01,2013-03-14 19:42:00,
2013-03-14 15:47:00,38.9,25.0,30.22,West,264,10.0,13.0,57,0.00,,---,0.01,VWS V14.01,2013-03-14 19:47:00,
2013-03-14 15:52:00,38.7,23.9,30.21,West,263,7.0,10.0,55,0.00,,---,0.01,VWS V14.01,2013-03-14 19:52:00,
2013-03-14 15:57:00,38.4,23.7,30.21,WNW,284,10.0,11.0,55,0.00,,---,0.01,VWS V14.01,2013-03-14 19:57:00,
2013-03-14 16:02:00,38.5,24.6,30.21,West,260,8.0,12.0,57,0.00,,---,0.01,VWS V14.01,2013-03-14 20:02:00,
2013-03-14 16:07:00,38.7,23.9,30.21,West,271,8.0,15.0,55,0.00,,---,0.01,VWS V14.01,2013-03-14 20:07:00,
2013-03-14 16:12:00,38.6,25.1,30.21,WSW,254,15.0,15.0,58,0.00,,---,0.01,VWS V14.01,2013-03-14 20:12:00,
2013-03-14 16:17:00,38.6,23.4,30.20,WSW,258,11.0,16.0,54,0.00,,---,0.01,VWS V14.01,2013-03-14 20:17:00,
2013-03-14 16:22:00,38.4,24.9,30.20,West,271,12.0,17.0,58,0.00,,---,0.01,VWS V14.01,2013-03-14 20:22:00,
2013-03-14 16:27:00,38.4,23.2,30.20,WSW,251,9.0,15.0,54,0.00,,---,0.01,VWS V14.01,2013-03-14 20:27:00,
2013-03-14 16:32:00,38.2,23.0,30.20,West,266,9.0,14.0,54,0.00,,---,0.01,VWS V14.01,2013-03-14 20:32:00,
2013-03-14 16:37:00,38.1,22.9,30.20,West,273,11.0,15.0,54,0.00,,---,0.01,VWS V14.01,2013-03-14 20:37:00,
2013-03-14 16:42:00,37.8,23.1,30.20,West,267,13.0,16.0,55,0.00,,---,0.01,VWS V14.01,2013-03-14 20:42:00,
2013-03-14 16:47:00,37.7,23.9,30.20,West,269,7.0,12.0,57,0.00,,---,0.01,VWS V14.01,2013-03-14 20:47:00,
2013-03-14 16:52:00,37.7,23.0,30.21,WSW,240,12.0,14.0,55,0.00,,---,0.01,VWS V14.01,2013-03-14 20:52:00,
2013-03-14 16:57:00,37.6,22.5,30.20,WSW,251,8.0,11.0,54,0.00,,---,0.01,VWS V14.01,2013-03-14 20:57:00,
2013-03-14 17:02:00,37.5,23.2,30.20,West,273,10.0,13.0,56,0.00,,---,0.01,VWS V14.01,2013-03-14 21:02:00,
2013-03-14 17:07:00,37.3,22.2,30.20,WSW,253,11.0,13.0,54,0.00,,---,0.01,VWS V14.01,2013-03-14 21:07:00,
2013-03-14 17:12:00,37.3,23.1,30.21,WSW,248,8.0,14.0,56,0.00,,---,0.01,VWS V14.01,2013-03-14 21:12:00,
2013-03-14 17:17:00,37.4,23.6,30.20,WSW,246,9.0,14.0,57,0.00,,---,0.01,VWS V14.01,2013-03-14 21:17:00,
2013-03-14 17:22:00,37.5,24.1,30.20,WNW,284,8.0,11.0,58,0.00,,---,0.01,VWS V14.01,2013-03-14 21:22:00,
2013-03-14 17:27:00,37.5,25.7,30.20,WSW,251,8.0,13.0,62,0.00,,---,0.01,VWS V14.01,2013-03-14 21:27:00,
2013-03-14 17:32:00,37.6,25.4,30.20,West,268,10.0,14.0,61,0.00,,---,0.01,VWS V14.01,2013-03-14 21:32:00,
2013-03-14 17:37:00,37.5,23.7,30.20,WSW,252,8.0,13.0,57,0.00,,---,0.01,VWS V14.01,2013-03-14 21:37:00,
2013-03-14 17:42:00,37.4,24.8,30.19,WSW,244,9.0,12.0,60,0.00,,---,0.01,VWS V14.01,2013-03-14 21:42:00,
2013-03-14 17:47:00,37.4,25.2,30.19,SW,233,8.0,13.0,61,0.00,,---,0.01,VWS V14.01,2013-03-14 21:47:00,
2013-03-14 17:52:00,37.4,23.6,30.19,SW,228,6.0,10.0,57,0.00,,---,0.01,VWS V14.01,2013-03-14 21:52:00,
2013-03-14 17:57:00,37.4,24.0,30.19,WSW,240,7.0,8.0,58,0.00,,---,0.01,VWS V14.01,2013-03-14 21:57:00,
2013-03-14 18:02:00,37.3,23.5,30.20,West,259,10.0,12.0,57,0.00,,---,0.01,VWS V14.01,2013-03-14 22:02:00,
2013-03-14 18:07:00,37.0,22.8,30.20,West,269,10.0,11.0,56,0.00,,---,0.01,VWS V14.01,2013-03-14 22:07:00,
2013-03-14 18:12:00,36.7,21.2,30.20,West,263,5.0,14.0,53,0.00,,---,0.01,VWS V14.01,2013-03-14 22:12:00,
2013-03-14 18:17:00,36.7,22.9,30.20,WSW,254,9.0,13.0,57,0.00,,---,0.01,VWS V14.01,2013-03-14 22:17:00,
2013-03-14 18:22:00,36.7,22.9,30.19,WSW,241,7.0,11.0,57,0.00,,---,0.01,VWS V14.01,2013-03-14 22:22:00,
2013-03-14 18:27:00,36.6,20.2,30.19,West,259,12.0,12.0,51,0.00,,---,0.01,VWS V14.01,2013-03-14 22:27:00,
2013-03-14 18:32:00,36.5,20.6,30.18,WSW,239,8.0,12.0,52,0.00,,---,0.01,VWS V14.01,2013-03-14 22:32:00,
2013-03-14 18:37:00,36.4,18.6,30.18,SW,236,9.0,11.0,48,0.00,,---,0.01,VWS V14.01,2013-03-14 22:37:00,
2013-03-14 18:42:00,36.4,20.5,30.18,WSW,242,7.0,12.0,52,0.00,,---,0.01,VWS V14.01,2013-03-14 22:42:00,
2013-03-14 18:47:00,36.3,19.9,30.18,WSW,244,8.0,12.0,51,0.00,,---,0.01,VWS V14.01,2013-03-14 22:47:00,
2013-03-14 18:52:00,36.1,19.7,30.19,WSW,238,9.0,11.0,51,0.00,,---,0.01,VWS V14.01,2013-03-14 22:52:00,
2013-03-14 18:57:00,36.0,20.1,30.19,WSW,246,8.0,12.0,52,0.00,,---,0.01,VWS V14.01,2013-03-14 22:57:00,
2013-03-14 19:02:00,35.9,19.1,30.19,WSW,254,6.0,12.0,50,0.00,,---,0.01,VWS V14.01,2013-03-14 23:02:00,
2013-03-14 19:07:00,35.7,18.4,30.19,WSW,240,8.0,12.0,49,0.00,,---,0.01,VWS V14.01,2013-03-14 23:07:00,
2013-03-14 19:12:00,35.6,18.8,30.19,WSW,237,11.0,11.0,50,0.00,,---,0.01,VWS V14.01,2013-03-14 23:12:00,
2013-03-14 19:17:00,35.4,17.7,30.19,WSW,246,9.0,10.0,48,0.00,,---,0.01,VWS V14.01,2013-03-14 23:17:00,
2013-03-14 19:22:00,35.1,16.4,30.19,West,264,8.0,12.0,46,0.00,,---,0.01,VWS V14.01,2013-03-14 23:22:00,
2013-03-14 19:27:00,34.9,16.2,30.19,WSW,257,5.0,11.0,46,0.00,,---,0.01,VWS V14.01,2013-03-14 23:27:00,
2013-03-14 19:33:00,34.7,17.0,30.18,WSW,244,10.0,10.0,48,0.00,,---,0.01,VWS V14.01,2013-03-14 23:33:00,
2013-03-14 19:38:00,34.5,18.2,30.17,SW,225,8.0,8.0,51,0.00,,---,0.01,VWS V14.01,2013-03-14 23:38:00,
2013-03-14 19:43:00,34.2,16.1,30.17,SW,234,6.0,9.0,47,0.00,,---,0.01,VWS V14.01,2013-03-14 23:43:00,
2013-03-14 19:48:00,34.0,16.4,30.17,SW,236,10.0,10.0,48,0.00,,---,0.01,VWS V14.01,2013-03-14 23:48:00,
2013-03-14 19:53:00,33.7,16.6,30.17,WSW,243,7.0,10.0,49,0.00,,---,0.01,VWS V14.01,2013-03-14 23:53:00,
2013-03-14 19:58:00,33.4,17.7,30.17,WSW,238,6.0,8.0,52,0.00,,---,0.01,VWS V14.01,2013-03-14 23:58:00,
2013-03-14 20:03:00,33.2,18.4,30.18,WSW,243,6.0,8.0,54,0.00,,---,0.01,VWS V14.01,2013-03-15 00:03:00,
2013-03-14 20:08:00,32.9,19.8,30.17,SW,236,6.0,7.0,58,0.00,,---,0.01,VWS V14.01,2013-03-15 00:08:00,
2013-03-14 20:12:00,32.6,19.9,30.17,WSW,240,8.0,8.0,59,0.00,,---,0.01,VWS V14.01,2013-03-15 00:12:00,
2013-03-14 20:17:00,32.5,19.4,30.17,WSW,242,5.0,9.0,58,0.00,,---,0.01,VWS V14.01,2013-03-15 00:17:00,
2013-03-14 20:22:00,32.3,20.4,30.16,WSW,237,8.0,9.0,61,0.00,,---,0.01,VWS V14.01,2013-03-15 00:22:00,
2013-03-14 20:27:00,32.2,20.7,30.16,SW,234,6.0,7.0,62,0.00,,---,0.01,VWS V14.01,2013-03-15 00:27:00,
2013-03-14 20:32:00,32.0,20.5,30.15,SW,234,5.0,6.0,62,0.00,,---,0.01,VWS V14.01,2013-03-15 00:32:00,
2013-03-14 20:37:00,31.9,20.8,30.15,SW,235,5.0,6.0,63,0.00,,---,0.01,VWS V14.01,2013-03-15 00:37:00,
2013-03-14 20:42:00,31.8,21.0,30.14,SW,235,4.0,6.0,64,0.00,,---,0.01,VWS V14.01,2013-03-15 00:42:00,
2013-03-14 20:47:00,31.6,21.2,30.14,SW,235,3.0,5.0,65,0.00,,---,0.01,VWS V14.01,2013-03-15 00:47:00,
2013-03-14 20:52:00,31.5,21.1,30.15,SW,235,3.0,5.0,65,0.00,,---,0.01,VWS V14.01,2013-03-15 00:52:00,
2013-03-14 20:57:00,31.3,20.9,30.14,SW,235,4.0,5.0,65,0.00,,---,0.01,VWS V14.01,2013-03-15 00:57:00,
2013-03-14 21:02:00,31.2,21.5,30.14,SW,235,4.0,5.0,67,0.00,,---,0.01,VWS V14.01,2013-03-15 01:02:00,
2013-03-14 21:08:00,31.1,21.8,30.14,SW,235,4.0,4.0,68,0.00,,---,0.01,VWS V14.01,2013-03-15 01:08:00,
2013-03-14 21:13:00,31.0,22.0,30.13,SW,235,4.0,5.0,69,0.00,,---,0.01,VWS V14.01,2013-03-15 01:13:00,
2013-03-14 21:18:00,31.0,22.0,30.14,SW,235,4.0,5.0,69,0.00,,---,0.01,VWS V14.01,2013-03-15 01:18:00,
2013-03-14 21:23:00,31.0,22.4,30.13,SW,235,3.0,4.0,70,0.00,,---,0.01,VWS V14.01,2013-03-15 01:23:00,
2013-03-14 21:28:00,31.0,22.4,30.12,SW,235,2.0,4.0,70,0.00,,---,0.01,VWS V14.01,2013-03-15 01:28:00,
2013-03-14 21:33:00,31.0,22.7,30.13,SW,235,3.0,3.0,71,0.00,,---,0.01,VWS V14.01,2013-03-15 01:33:00,
2013-03-14 21:38:00,31.0,22.4,30.13,SW,235,2.0,3.0,70,0.00,,---,0.01,VWS V14.01,2013-03-15 01:38:00,
2013-03-14 21:43:00,31.0,22.4,30.14,SW,235,1.0,3.0,70,0.00,,---,0.01,VWS V14.01,2013-03-15 01:43:00,
2013-03-14 21:48:00,31.1,22.8,30.14,SW,235,0.0,2.0,71,0.00,,---,0.01,VWS V14.01,2013-03-15 01:48:00,
2013-03-14 21:53:00,31.2,22.9,30.14,SW,235,0.0,2.0,71,0.00,,---,0.01,VWS V14.01,2013-03-15 01:53:00,
2013-03-14 21:58:00,31.2,23.2,30.14,SW,235,1.0,2.0,72,0.00,,---,0.01,VWS V14.01,2013-03-15 01:58:00,
2013-03-14 22:03:00,31.3,23.0,30.13,SW,235,2.0,3.0,71,0.00,,---,0.01,VWS V14.01,2013-03-15 02:03:00,
2013-03-14 22:08:00,31.3,23.0,30.14,SW,235,2.0,3.0,71,0.00,,---,0.01,VWS V14.01,2013-03-15 02:08:00,
2013-03-14 22:13:00,31.4,22.8,30.14,SW,235,2.0,3.0,70,0.00,,---,0.01,VWS V14.01,2013-03-15 02:13:00,
2013-03-14 22:18:00,31.5,22.5,30.13,SW,235,4.0,4.0,69,0.00,,---,0.01,VWS V14.01,2013-03-15 02:18:00,
2013-03-14 22:22:00,31.5,22.2,30.13,SW,235,3.0,4.0,68,0.00,,---,0.01,VWS V14.01,2013-03-15 02:22:00,
2013-03-14 22:27:00,31.6,22.3,30.13,SW,235,3.0,4.0,68,0.00,,---,0.01,VWS V14.01,2013-03-15 02:27:00,
2013-03-14 22:32:00,31.6,22.3,30.13,SW,235,3.0,5.0,68,0.00,,---,0.01,VWS V14.01,2013-03-15 02:32:00,
2013-03-14 22:37:00,31.7,22.4,30.13,SW,235,3.0,4.0,68,0.00,,---,0.01,VWS V14.01,2013-03-15 02:37:00,
2013-03-14 22:42:00,31.7,22.7,30.13,SW,235,3.0,4.0,69,0.00,,---,0.01,VWS V14.01,2013-03-15 02:42:00,
2013-03-14 22:47:00,31.8,23.1,30.13,SW,235,3.0,4.0,70,0.00,,---,0.01,VWS V14.01,2013-03-15 02:47:00,
2013-03-14 22:52:00,31.9,23.2,30.13,SW,235,4.0,5.0,70,0.00,,---,0.01,VWS V14.01,2013-03-15 02:52:00,
2013-03-14 22:58:00,31.9,23.6,30.13,SW,235,2.0,5.0,71,0.00,,---,0.01,VWS V14.01,2013-03-15 02:58:00,
2013-03-14 23:02:00,31.9,23.6,30.12,SW,235,2.0,6.0,71,0.00,,---,0.01,VWS V14.01,2013-03-15 03:02:00,
2013-03-14 23:07:00,32.0,24.0,30.12,SW,235,3.0,6.0,72,0.00,,---,0.01,VWS V14.01,2013-03-15 03:07:00,
2013-03-14 23:12:00,32.0,24.3,30.12,SW,225,4.0,6.0,73,0.00,,---,0.01,VWS V14.01,2013-03-15 03:12:00,
2013-03-14 23:17:00,32.1,24.8,30.12,SW,225,3.0,5.0,74,0.00,,---,0.01,VWS V14.01,2013-03-15 03:17:00,
2013-03-14 23:22:00,32.2,24.9,30.12,SW,226,3.0,8.0,74,0.00,,---,0.01,VWS V14.01,2013-03-15 03:22:00,
2013-03-14 23:27:00,32.3,25.3,30.12,SW,229,5.0,8.0,75,0.00,,---,0.01,VWS V14.01,2013-03-15 03:27:00,
2013-03-14 23:32:00,32.4,25.4,30.12,SW,225,4.0,7.0,75,0.00,,---,0.01,VWS V14.01,2013-03-15 03:32:00,
2013-03-14 23:37:00,32.5,26.1,30.12,SW,227,6.0,6.0,77,0.00,,---,0.01,VWS V14.01,2013-03-15 03:37:00,
2013-03-14 23:42:00,32.5,26.1,30.12,SW,231,5.0,6.0,77,0.00,,---,0.01,VWS V14.01,2013-03-15 03:42:00,
2013-03-14 23:47:00,32.6,26.5,30.12,WSW,242,6.0,6.0,78,0.00,,---,0.01,VWS V14.01,2013-03-15 03:47:00,
2013-03-14 23:52:00,32.6,26.5,30.11,WSW,238,4.0,6.0,78,0.00,,---,0.01,VWS V14.01,2013-03-15 03:52:00,
2013-03-14 23:57:00,32.7,26.9,30.12,WSW,239,6.0,8.0,79,0.00,,---,0.01,VWS V14.01,2013-03-15 03:57:00,